Hourly Weather Cambridge

Today, 2 October, Friday

Time Temperature Precipitation Wind Pressure Humidity
00:00 +8°C° 0 mm 1 mps 731 mmHg 89%
01:00 +8°C° 0 mm 1 mps 731 mmHg 90%
02:00 +7°C° 0 mm 1 mps 731 mmHg 90%
03:00 +7°C° 0 mm 1 mps 731 mmHg 91%
04:00 +6°C° 0 mm 2 mps 731 mmHg 92%
05:00 +6°C° 0 mm 2 mps 731 mmHg 93%
06:00 +5°C° 0 mm 3 mps 732 mmHg 94%
07:00 +5°C° 0 mm 3 mps 733 mmHg 95%
08:00 +7°C° 0 mm 3 mps 733 mmHg 90%
09:00 +8°C° 0 mm 3 mps 734 mmHg 85%
10:00 +9°C° 0 mm 3 mps 734 mmHg 80%
11:00 +10°C° 0.2 mm 3 mps 734 mmHg 77%
12:00 +11°C° 0.2 mm 3 mps 735 mmHg 74%
13:00 +11°C° 0.2 mm 3 mps 735 mmHg 71%
14:00 +11°C° 0.3 mm 3 mps 735 mmHg 72%
15:00 +11°C° 0.3 mm 3 mps 735 mmHg 74%
16:00 +10°C° 0.3 mm 3 mps 735 mmHg 76%
17:00 +9°C° 0.1 mm 3 mps 736 mmHg 80%
18:00 +8°C° 0.1 mm 3 mps 736 mmHg 84%
19:00 +7°C° 0.1 mm 3 mps 736 mmHg 88%
20:00 +7°C° 0 mm 3 mps 737 mmHg 88%
21:00 +5°C° 0 mm 3 mps 737 mmHg 88%
22:00 +5°C° 0 mm 3 mps 737 mmHg 88%
23:00 +4°C° 0 mm 3 mps 737 mmHg 88%

Tomorrow, 3 October, Saturday

Time Temperature Precipitation Wind Pressure Humidity
00:00 +3°C° 0 mm 3 mps 738 mmHg 88%
01:00 +3°C° 0 mm 2 mps 738 mmHg 88%
02:00 +2°C° 0 mm 2 mps 738 mmHg 86%
03:00 +2°C° 0 mm 2 mps 738 mmHg 84%
04:00 +2°C° 0 mm 2 mps 738 mmHg 83%
05:00 +3°C° 0 mm 1 mps 738 mmHg 82%
06:00 +3°C° 0 mm 1 mps 738 mmHg 82%
07:00 +4°C° 0 mm 1 mps 738 mmHg 81%
08:00 +6°C° 0 mm 1 mps 739 mmHg 74%
09:00 +8°C° 0 mm 1 mps 739 mmHg 66%
10:00 +10°C° 0 mm 1 mps 740 mmHg 59%
11:00 +10°C° 0 mm 1 mps 740 mmHg 56%
12:00 +10°C° 0 mm 2 mps 739 mmHg 54%
13:00 +12°C° 0 mm 2 mps 739 mmHg 51%
14:00 +12°C° 0 mm 2 mps 739 mmHg 55%
15:00 +10°C° 0 mm 2 mps 739 mmHg 60%
16:00 +10°C° 0 mm 2 mps 738 mmHg 64%
17:00 +9°C° 0 mm 2 mps 739 mmHg 68%
18:00 +9°C° 0 mm 1 mps 739 mmHg 73%
19:00 +8°C° 0 mm 1 mps 739 mmHg 77%
20:00 +7°C° 0 mm 1 mps 739 mmHg 79%
21:00 +7°C° 0 mm 1 mps 739 mmHg 82%
22:00 +6°C° 0 mm 1 mps 739 mmHg 84%
23:00 +6°C° 0 mm 1 mps 738 mmHg 84%

Day after tomorrow, 4 October, Sunday

Time Temperature Precipitation Wind Pressure Humidity
00:00 +6°C° 0 mm 1 mps 738 mmHg 83%
01:00 +5°C° 0 mm 0 mps 738 mmHg 83%
02:00 +5°C° 0 mm 0 mps 738 mmHg 83%
03:00 +5°C° 0 mm 0 mps 738 mmHg 83%
04:00 +5°C° 0 mm 0 mps 738 mmHg 82%
05:00 +6°C° 0 mm 1 mps 738 mmHg 83%
06:00 +6°C° 0 mm 1 mps 738 mmHg 83%
07:00 +6°C° 0 mm 1 mps 738 mmHg 83%
08:00 +8°C° 0 mm 1 mps 738 mmHg 75%
09:00 +9°C° 0 mm 1 mps 738 mmHg 68%
10:00 +10°C° 0 mm 2 mps 738 mmHg 60%
11:00 +12°C° 0 mm 2 mps 737 mmHg 59%
12:00 +13°C° 0 mm 2 mps 737 mmHg 58%
13:00 +13°C° 0 mm 3 mps 737 mmHg 57%
14:00 +12°C° 1 mm 2 mps 736 mmHg 69%
15:00 +10°C° 1 mm 2 mps 736 mmHg 81%
16:00 +10°C° 1 mm 1 mps 736 mmHg 93%
17:00 +9°C° 1.9 mm 2 mps 735 mmHg 94%
18:00 +8°C° 1.9 mm 2 mps 735 mmHg 95%
19:00 +8°C° 1.9 mm 3 mps 735 mmHg 97%
20:00 +8°C° 1.9 mm 3 mps 735 mmHg 97%
21:00 +8°C° 1.9 mm 3 mps 735 mmHg 96%
22:00 +7°C° 1.9 mm 4 mps 735 mmHg 96%
23:00 +8°C° 0 mm 3 mps 735 mmHg 96%

5 October, Monday

Time Temperature Precipitation Wind Pressure Humidity
00:00 +8°C° 0 mm 3 mps 735 mmHg 96%
01:00 +8°C° 0 mm 2 mps 735 mmHg 95%
02:00 +8°C° 0.1 mm 3 mps 735 mmHg 95%
03:00 +8°C° 0.1 mm 3 mps 736 mmHg 95%
04:00 +8°C° 0.1 mm 3 mps 736 mmHg 94%
05:00 +7°C° 0 mm 3 mps 737 mmHg 94%
06:00 +7°C° 0 mm 3 mps 737 mmHg 94%
07:00 +7°C° 0 mm 3 mps 737 mmHg 93%
08:00 +8°C° 0 mm 2 mps 738 mmHg 89%
09:00 +9°C° 0 mm 2 mps 738 mmHg 84%
10:00 +10°C° 0 mm 2 mps 739 mmHg 79%
11:00 +10°C° 0 mm 2 mps 739 mmHg 76%
12:00 +12°C° 0 mm 2 mps 739 mmHg 72%
13:00 +13°C° 0 mm 1 mps 739 mmHg 69%
14:00 +13°C° 0 mm 1 mps 739 mmHg 68%
15:00 +13°C° 0 mm 1 mps 738 mmHg 67%
16:00 +13°C° 0 mm 1 mps 738 mmHg 65%
17:00 +12°C° 0 mm 1 mps 738 mmHg 71%
18:00 +11°C° 0 mm 1 mps 738 mmHg 76%
19:00 +8°C° 0 mm 0 mps 738 mmHg 82%
20:00 +9°C° 0 mm 1 mps 737 mmHg 86%
21:00 +8°C° 0 mm 1 mps 737 mmHg 90%
22:00 +7°C° 0 mm 2 mps 737 mmHg 94%
23:00 +7°C° 0 mm 2 mps 737 mmHg 94%

6 October, Tuesday

Time Temperature Precipitation Wind Pressure Humidity
00:00 +7°C° 0 mm 2 mps 737 mmHg 94%
01:00 +7°C° 0 mm 2 mps 737 mmHg 94%
02:00 +7°C° 0 mm 2 mps 736 mmHg 93%
03:00 +7°C° 0 mm 2 mps 736 mmHg 91%
04:00 +7°C° 0 mm 2 mps 736 mmHg 90%
05:00 +7°C° 0 mm 2 mps 735 mmHg 91%
06:00 +7°C° 0 mm 3 mps 735 mmHg 93%
07:00 +7°C° 0 mm 3 mps 735 mmHg 94%
08:00 +8°C° 0 mm 4 mps 734 mmHg 84%
09:00 +10°C° 0 mm 6 mps 734 mmHg 75%
10:00 +14°C° 0 mm 7 mps 734 mmHg 66%
11:00 +14°C° 0 mm 7 mps 733 mmHg 64%
12:00 +15°C° 0 mm 8 mps 733 mmHg 61%
13:00 +15°C° 0 mm 8 mps 732 mmHg 59%
14:00 +15°C° 0 mm 8 mps 732 mmHg 60%
15:00 +15°C° 0 mm 8 mps 731 mmHg 61%
16:00 +15°C° 0 mm 8 mps 731 mmHg 61%
17:00 +14°C° 0.3 mm 7 mps 730 mmHg 68%
18:00 +13°C° 0.3 mm 6 mps 730 mmHg 75%
19:00 +12°C° 0.3 mm 5 mps 730 mmHg 82%
20:00 +13°C° 0 mm 5 mps 730 mmHg 83%
21:00 +13°C° 0 mm 5 mps 729 mmHg 84%
22:00 +13°C° 0 mm 5 mps 729 mmHg 85%
23:00 +13°C° 0 mm 5 mps 729 mmHg 87%

7 October, Wednesday

Time Temperature Precipitation Wind Pressure Humidity
00:00 +13°C° 0 mm 4 mps 728 mmHg 89%
01:00 +13°C° 0 mm 4 mps 728 mmHg 90%
02:00 +12°C° 0 mm 4 mps 727 mmHg 92%
03:00 +12°C° 0 mm 4 mps 727 mmHg 94%
04:00 +11°C° 0 mm 3 mps 726 mmHg 95%
05:00 +11°C° 0 mm 3 mps 726 mmHg 96%
06:00 +11°C° 0 mm 3 mps 725 mmHg 96%
07:00 +11°C° 0 mm 3 mps 725 mmHg 96%
08:00 +13°C° 0.3 mm 5 mps 724 mmHg 93%
09:00 +14°C° 0.3 mm 6 mps 723 mmHg 90%
10:00 +15°C° 0.3 mm 8 mps 722 mmHg 87%
11:00 +15°C° 1.4 mm 8 mps 721 mmHg 85%
12:00 +15°C° 1.4 mm 9 mps 720 mmHg 83%
13:00 +13°C° 1.4 mm 10 mps 719 mmHg 81%
14:00 +13°C° 0.3 mm 11 mps 720 mmHg 81%
15:00 +12°C° 0.3 mm 11 mps 720 mmHg 81%
16:00 +11°C° 0.3 mm 11 mps 720 mmHg 81%
17:00 +11°C° 0.2 mm 11 mps 721 mmHg 81%
18:00 +9°C° 0.2 mm 11 mps 722 mmHg 82%
19:00 +9°C° 0.2 mm 11 mps 723 mmHg 82%
20:00 +8°C° 0.1 mm 10 mps 724 mmHg 81%
21:00 +8°C° 0.1 mm 9 mps 725 mmHg 81%
22:00 +7°C° 0.1 mm 9 mps 726 mmHg 80%
23:00 +6°C° 0 mm 8 mps 726 mmHg 79%
Show more

We Need Your Consent

Meteoprog and our Service Providers may store and access personal data such as cookies, device identifiers or other similar technologies on your device and process such data to personalise content and ads, as well as provide social media features and to analyse the traffic.

  • Store and/or access information on your device

    Cookies, device identifiers or other information can be stored or accessed on your device for the purposes indicated above.

  • Personalised ads and content, ad and content measurement, audience insights, and products development

    Ads and content can be personalised based on a profile. More data can be added to better personalise ads and content. Ad and content performance can be measured. Insights about the audience who saw the ads and content can be derived. Such data can be used to develop or improve user’s experience, systems and software.

By clicking ‘I Agree’ you will allow the use of indicated cookies, device identifiers, web beacons or other similar technologies. Your settings can be changed in the browser on your device.

For certain purposes, legitimate interests may be relied on, rather than consent. You can read more about this in our Privacy and Cookie Policy.